Regional Weather Roundup
Issued by NWS Jackson, KY

Home | Current Version | Previous Version | Graphics & Text | Print | Product List | Glossary On
Versions: 1 2 3 4 5 6 7 8 9 10 11 12 13 14 15 16 17 18 19 20 21 22 23 24 25 26 27 28 29 30 31 32 33 34 35 36 37 38 39 40 41 42 43 44 45 46 47 48 49 50
000
ASUS43 KJKL 241311
RWRJKL

EAST KENTUCKY HOURLY WEATHER ROUNDUP
NATIONAL WEATHER SERVICE JACKSON KY
900 AM EDT THU JUL 24 2014

NOTE: "FAIR" INDICATES FEW OR NO CLOUDS BELOW 12,000 FEET WITH
NO SIGNIFICANT WEATHER AND/OR OBSTRUCTIONS TO VISIBILITY.

* THESE REPORTS ARE NOT UNDER NWS QUALITY CONTROL AND MAY NOT
  REPORT WEATHER SUCH AS PRECIPITATION AND FOG.

KYZ079-080-083-085-087-088-110-112-115-119-120-241400
...EASTERN KENTUCKY...

CITY           SKY/WX    TMP DP  RH WIND       PRES   REMARKS
JACKSON        FOG       69  67  93 CALM      29.99S VSB<1/4
LONDON         CLOUDY    70  68  93 SW5       30.00R FOG
SOMERSET*      CLOUDY    70  70 100 CALM      30.01R FOG
MONTICELLO*    CLOUDY    71  71 100 CALM      30.01R FOG
WILLIAMSBURG*    N/A     68  68 100 CALM      30.00R
MIDDLESBORO*   CLOUDY    69  67  93 CALM      30.00S
HARLAN APT*    CLOUDY    68  66  94 MISG      30.01S VSB 1/4
HAZARD APT*    LGT RAIN  70  70 100 CALM      29.99
BLACK MTN*       N/A     63  63 100 S2          N/A
PIKEVILLE APT* FOG       68  66  94 CALM      29.98F VSB 0
BIG SANDY*     CLOUDY    69  68  99 CALM      29.98S
MOREHEAD APT*  LGT RAIN  64  63  94 VRB6      30.03R
$$

KYZ035-036-041-042-044-050-067-078-099-241400
...CENTRAL KENTUCKY...

CITY           SKY/WX    TMP DP  RH WIND       PRES   REMARKS
MT STERLING*   CLOUDY    63  63 100 NE6       30.03R
FLEMING/MASON* CLOUDY    61  59  94 NE10      30.04R
DANVILLE*      CLOUDY    63  63 100 N8        30.03R FOG
RICHMOND*      CLOUDY    64  61  88 N7        30.01R
LEXINGTON      CLOUDY    66  59  78 N13       30.02R
FRANKFORT      SUNNY     66  57  72 N8        30.02R
$$

KYZ091>093-OHZ055-061-077-WVZ005-015-034-035-042-241400
...SOUTHERN OHIO/WEST VIRGINIA...

CITY           SKY/WX    TMP DP  RH WIND       PRES   REMARKS
COVINGTON      MOSUNNY   64  55  72 N12       30.06R
COLUMBUS       MOSUNNY   66  57  72 N10       30.05R
DAYTON         MOSUNNY   63  57  81 N13       30.09R
WILMINGTON     PTSUNNY   62  56  80 NE15      30.05R
HUNTINGTON     CLOUDY    63  62  97 N8        29.99R FOG
CHARLESTON     CLOUDY    67  66  97 N7        29.97R FOG
PINEVILLE*     CLOUDY    71  71 100 MISG      30.04F FOG
BECKLEY        CLOUDY    68  66  93 SW7       30.02S
BLUEFIELD      CLOUDY    70  65  84 W6        30.05R
$$

VAZ002-007-008-TNZ017-027-036-066-071-241400
...SOUTHWEST VIRGINIA/EAST TENNESSEE...

CITY           SKY/WX    TMP DP  RH WIND       PRES   REMARKS
WISE*          CLOUDY    68  68 100 W5        30.07R
JONESVILLE*    MOSUNNY   68  68 100 CALM      30.03R
ABINGDON*      CLOUDY    72  70  93 CALM      30.02S FOG
BRISTOL        CLOUDY    72  67  84 CALM      30.01R
KNOXVILLE      CLOUDY    73  71  93 SW7       29.99R
OAK RIDGE      MOSUNNY   74  69  85 CALM      30.00R
CROSSVILLE     CLOUDY    70  66  87 W3        30.05R FOG
NASHVILLE      CLOUDY    73  68  84 N9        30.02R
$$

...KEY TO REMARKS...
VSB - VISIBILITY IN MILES
WCI - WIND CHILL INDEX
HX  - HEAT INDEX

$$



USA.gov is the U.S. government's official web portal to all federal, state and local government web resources and services.